Overview Statistics Trail Chart Weather Telemetry Raw packets
 

This is the latest recevied weather packets stored in our database for station/object 4S6DRJ-13. If no packets are shown the sender has not sent any weather packets the latest 10 day(s).

<< 315 316 317 318 319 320 321 >>
Time Temp. Humidity Pressure Rain* Wind** Luminosity Snow
1787999931 30° C 76% 1008.1 hPa 0 mm 1.34 m/s, 163° 237 W/m² -
1787999882 30° C 76% 1008 hPa 0 mm 1.79 m/s, 286° 272 W/m² -
1787999809 30° C 76% 1007.9 hPa 0 mm 1.79 m/s, 249° 301 W/m² -
1787999749 30° C 76% 1008 hPa 0 mm 1.79 m/s, 238° 303 W/m² -
1787999687 30° C 76% 1008 hPa 0 mm 1.34 m/s, 338° 332 W/m² -
1787999626 30° C 76% 1008.1 hPa 0 mm 2.24 m/s, 305° 348 W/m² -
1787999564 30° C 76% 1008 hPa 0 mm 2.68 m/s, 277° 300 W/m² -
1787999504 30° C 75% 1008.1 hPa 0 mm 3.13 m/s, 338° 283 W/m² -
1787999442 30° C 75% 1008.1 hPa 0 mm 2.68 m/s, 318° 274 W/m² -
1787999382 30° C 76% 1008.3 hPa 0 mm 1.34 m/s, 287° 263 W/m² -
1787999320 30° C 75% 1008.1 hPa 0 mm 3.13 m/s, 151° 354 W/m² -
1787999259 30° C 76% 1008.1 hPa 0 mm 1.34 m/s, 308° 361 W/m² -
1787999198 30° C 76% 1008.2 hPa 0 mm 2.68 m/s, 137° 330 W/m² -
1787999137 30° C 76% 1007.8 hPa 0 mm 1.34 m/s, 256° 306 W/m² -
1787999076 30° C 76% 1008.2 hPa 0 mm 2.68 m/s, 216° 449 W/m² -
1787999016 30° C 76% 1007.9 hPa 0 mm 2.68 m/s, 234° 385 W/m² -
1787998955 30° C 76% 1008.1 hPa 0 mm 2.68 m/s, 349° 287 W/m² -
1787998893 30° C 76% 1008 hPa 0 mm 3.13 m/s, 244° 304 W/m² -
1787998833 30° C 76% 1008 hPa 0 mm 1.34 m/s, 273° 487 W/m² -
1787998772 30.56° C 76% 1008 hPa 0 mm 2.68 m/s, 219° 336 W/m² -
1787998711 30.56° C 76% 1008.3 hPa 0 mm 1.79 m/s, 287° 306 W/m² -
1787998650 30.56° C 76% 1007.8 hPa 0 mm 1.34 m/s, 287° 410 W/m² -
1787998589 30.56° C 75% 1008 hPa 0 mm 2.68 m/s, 180° 282 W/m² -
1787998528 30.56° C 75% 1007.9 hPa 0 mm 3.58 m/s, 359° 333 W/m² -
1787998467 30.56° C 75% 1007.8 hPa 0 mm 1.79 m/s, 243° 340 W/m² -

* Rain latest hour (hover to see other rain measurements)
** Current wind speed in m/s (hover to see current wind gust speed)